This demonstration page uses our WeatherBlox Daily Observations layout. Learn more.

Left ArrowRight Arrow

Hourly Observations for August 3, 2022

Temp ( °F °C ) Dew Point ( °F °C ) Humidity (%) Winds ( mph kmh ) Pressure ( in mb ) Visibility ( mi km ) Precip ( " mm )
12:56 am 00:56 Clear 84 28.8 69 20.5 61 61 S 8 13 29.68 1005 10 16 0.00 0.00
1:56 am 01:56 Mostly Cloudy 84 29.1 67 19.7 57 57 S 10 17 29.67 1005 10 16 0.00 0.00
2:56 am 02:56 Mostly Cloudy 84 29.1 66 19.1 55 55 S 9 15 29.67 1005 10 16 0.00 0.00
3:56 am 03:56 Mostly Cloudy 84 29.1 66 18.8 54 54 WSW 5 7 29.71 1006 10 16 0.00 0.00
4:56 am 04:56 Cloudy 85 29.5 66 18.9 53 53 SSW 6 9 29.70 1006 10 16 0.00 0.00
5:23 am 05:23 Mostly Cloudy with Light Rain 86 30 66 19 52 52 WSW 13 20 29.71 1006 10 16 0.00 0.00
5:56 am 05:56 Mostly Cloudy with Light Rain 81 27.3 69 20.8 68 68 NW 3 6 29.70 1006 10 16 0.01 0.25
6:56 am 06:56 Mostly Cloudy with Light Showers and Scattered Storms 79 26 71 21.6 77 77 SSE 5 7 29.71 1006 10 16 0.00 0.00
7:00 am 07:00 Mostly Cloudy with Thunderstorms 79 26 70 21 74 74 SSE 6 9 29.71 1006 10 16 0.00 0.00
7:21 am 07:21 Cloudy with Light Showers 77 25 72 22 83 83 SW 6 9 29.71 1006 10 16 0.00 0.00
7:56 am 07:56 Mostly Cloudy 78 25.6 71 21.7 79 79 WNW 3 6 29.72 1006 10 16 0.02 0.51
8:56 am 08:56 Mostly Cloudy 80 26.9 71 21.8 74 74 WNW 5 7 29.72 1006 10 16 0.00 0.00
9:56 am 09:56 Mostly Cloudy 83 28.3 73 22.5 71 71 ENE 3 6 29.74 1007 10 16 0.00 0.00
10:56 am 10:56 Sunny 88 31 70 21 55 55 Calm 29.70 1006 10 16 0.00 0.00
11:56 am 11:56 Partly Cloudy 91 33 70 21 49 49 SSW 9 15 29.71 1006 10 16 0.00 0.00
12:56 pm 12:56 Mostly Sunny 91 33 70 21 49 49 VRB 3 6 29.72 1006 10 16 0.00 0.00
1:56 pm 13:56 Mostly Cloudy 93 34 70 21 47 47 ESE 3 6 29.73 1007 10 16 0.00 0.00
2:56 pm 14:56 Mostly Cloudy 93 34 70 21 47 47 ESE 6 9 29.74 1007 10 16 0.00 0.00
3:56 pm 15:56 Partly Cloudy 96 35.3 69 20.4 42 42 ENE 6 9 29.82 1010 10 16 0.00 0.00
4:56 pm 16:56 Mostly Sunny 96 35.8 63 17 33 33 N 6 9 29.81 1010 10 16 0.00 0.00
5:56 pm 17:56 Sunny 96 35.3 66 18.8 38 38 NNE 6 9 29.83 1010 10 16 0.00 0.00
6:56 pm 18:56 Sunny 94 34.5 67 19.7 42 42 NNE 5 7 29.83 1010 10 16 0.00 0.00
7:56 pm 19:56 Mostly Sunny 90 32.3 71 21.5 53 53 ENE 5 7 29.85 1011 10 16 0.00 0.00
8:56 pm 20:56 Clear 86 30.1 70 20.9 58 58 NNE 9 15 29.88 1012 10 16 0.00 0.00
9:56 pm 21:56 Clear 84 28.8 66 19.1 56 56 NE 8 13 29.93 1014 10 16 0.00 0.00
10:56 pm 22:56 Clear 81 27.2 67 19.3 62 62 ENE 5 7 29.95 1014 10 16 0.00 0.00
11:56 pm 23:56 Clear 79 26.3 66 18.7 63 63 NE 3 6 29.96 1015 10 16 0.00 0.00

Powered by AerisWeather